www.pogodaiklimat.ru

Погода и климат >> Архив погоды >> Россия >> Якутия >> Екюччю


ПОГОДА в Екюччю

  • Прогноз погоды в Екюччю
  • Монитор погоды в Екюччю

АРХИВ ПОГОДЫ в Екюччю

Время (UTC), дата Ветер
(напр.,м/с)
 
Видим.   Явления Облачность Т
(С)
Тd
(С)
f
(%)
Тe
(С)
Тes
(С)
Комфортность P
(гПа)
Po
(гПа)
Тmin
(С)
Tmax
(С)
R
(мм)
R24
(мм)
S
(см)
09 9.07 Ю 4 50 км 10/3 1000 м
[Sc As op Ci fib]
+20.7 +13.8 65 +23 +24 комфорт 1003.4 980.5 +23.5
12 9.07 Ю 4 50 км 4/0
[Ac cast Ci fib]
+19.6 +12.5 64 +21 +21 комфорт 1003.9 980.8
15 9.07 штиль 0 50 км 1/0
[Ci fib]
+12.8 +11.9 94 +12 +12 1004.8 981.2
18 9.07 штиль 0 50 км ясно +9.8 +9.2 96 +9 +9 1005.3 981.5
21 9.07 штиль 0 50 км 3/0
[Ci fib]
+13.4 +12.3 93 +13 +16 1005.8 982.3 +9.5
00 10.07 ЮВ 2 50 км 5/0
[Ci fib]
+21.0 +14.7 67 +25 +32 комфорт 1006.1 983.1
03 10.07 Ю 3 50 км 3/3 600 м
[Cu hum]
+26.1 +15.0 50 +29 +35 жарко 1003.1 980.6
06 10.07 В 2 50 км 5/3 600 м
[Cu hum Ci fib]
+28.8 +12.5 37 +30 +36 жарко 1001.5 979.2
09 10.07 ЮВ 2 50 км 5/3 600 м
[Cu hum Ci fib]
+29.3 +12.0 34 +30 +32 жарко 1001.0 978.7 +29.7
12 10.07 СВ 1 50 км 9/8 1000 м
[Sc Ci fib]
+25.7 +14.3 49 +28 +28 жарко 1002.1 979.6
15 10.07 ЮВ 2 20 км слаб. дождь {гроза} 10/10 600 м
[Cb cap]
+17.4 +15.9 91 +18 +18 1005.7 982.5
18 10.07 Ю 1 50 км {гроза, ливн. осадки} 10/10 1000 м
[Sc]
+16.5 +14.8 90 +17 +17 1006.6 983.2
21 10.07 Ю 3 50 км 9/0
[Ac cuf Cs]
+17.6 +15.7 89 +18 +19 1007.3 984.1 +16.3 4
00 11.07 Ю 3 50 км 3/0
[Ci fib]
+21.9 +14.8 64 +25 +31 комфорт 1007.7 984.8
03 11.07 ЮЗ 2 50 км 3/3 600 м
[Cu hum]
+28.0 +11.8 37 +29 +37 жарко 1006.6 984.2
06 11.07 ЮВ 1 50 км 9/8 600 м
[Cb cap Cs]
+28.6 +11.5 35 +29 +30 жарко 1006.3 983.9
09 11.07 СВ 4 50 км 9/8 600 м
[Cb cap Cs]
+27.6 +11.9 38 +29 +29 жарко 1006.5 984.0 +29.1
12 11.07 штиль 0 50 км 3/3 600 м
[Cb cap]
+23.4 +13.3 53 +27 +27 душно 1009.3 986.5
15 11.07 штиль 0 50 км 3/0
[Ci fib]
+16.6 +11.0 69 +17 +17 1011.4 987.9
18 11.07 ЮЗ 1 50 км 4/0
[Ci fib]
+10.5 +7.6 82 +10 +10 1013.0 989.0
21 11.07 штиль 0 50 км 3/0
[Ci fib]
+14.4 +11.0 80 +14 +17 1012.7 989.0 +10.5
00 12.07 Ю 1 50 км ясно +22.1 +13.9 60 +25 +34 комфорт 1011.2 988.2
03 12.07 Ю 1 50 км 6/0
[Cs]
+28.1 +11.7 36 +29 +40 жарко 1009.0 986.6
06 12.07 Ю 2 50 км 3/1 600 м
[Cu hum Ci fib]
+28.8 +10.6 32 +29 +36 жарко 1006.5 984.1
09 12.07 ЮВ 1 50 км 9/0
[Cs]
+29.9 +12.5 34 +31 +34 жарко 1005.1 982.9 +30.1
12 12.07 штиль 0 50 км 9/0
[Cs]
+24.1 +13.7 52 +26 +27 жарко 1004.7 985.1
15 12.07 штиль 0 50 км 9/0
[Cs]
+14.3 +10.5 78 +14 +14 1005.5 982.1
18 12.07 Ю 2 50 км 5/0
[Ci fib]
+11.6 +9.2 85 +10 +11 1006.5 982.7
21 12.07 Ю 3 50 км 5/0
[Ci fib]
+16.6 +12.1 75 +16 +18 1006.2 982.9 +11.4
00 13.07 Ю 2 50 км 6/0
[Ci fib]
+24.4 +15.5 58 +27 +34 жарко 1005.7 982.9
03 13.07 штиль 0 50 км дым ясно +28.7 +12.8 38 +30 +45 жарко 1004.4 982.1
06 13.07 В 1 10 км дым 3/3 600 м
[Cu hum]
+30.3 +11.9 32 +31 +38 жарко 1002.7 980.5
09 13.07 штиль 0 20 км дым 3/3 600 м
[Cu hum]
+32.7 +10.9 26 +32 +35 жарко 1001.7 979.7 +33.4
12 13.07 СВ 4 4000 м мгла ?/? +23.4 +11.1 46 +26 +26 жарко 1003.9 981.2
15 13.07 С 4 4000 м мгла ?/? +17.4 +11.3 67 +17 +17 1005.3 982.1
18 13.07 С 3 4000 м мгла ?/? +15.9 +12.1 78 +15 +15 1006.2 982.7
21 13.07 штиль 0 4000 м мгла ?/? +12.7 +11.2 91 +12 +12 1005.9 982.3 +12.7
00 14.07 штиль 0 2000 м мгла ?/? +17.5 +13.4 77 +17 +17 1004.8 981.6
03 14.07 штиль 0 2000 м мгла ?/? +22.3 +14.5 61 +26 +26 жарко 1004.4 981.6
06 14.07 штиль 0 4000 м мгла {гроза} ?/? +21.4 +15.4 69 +25 +25 комфорт 1004.1 981.2
09 14.07 штиль 0 4000 м мгла {дождь} ?/? +20.6 +15.2 71 +23 +23 комфорт 1004.4 981.5 +22.9 5
12 14.07 С 3 20 км дым {дождь} 10/10 1000 м
[Sc]
+18.3 +15.4 83 +19 +19 1007.5 984.3
15 14.07 С 1 50 км 10/10 1000 м
[Sc]
+16.1 +13.8 86 +17 +17 1010.6 987.2
18 14.07 С 1 50 км 10/0
[As op]
+14.5 +12.9 90 +15 +15 1012.5 988.8
21 14.07 штиль 0 50 км 10/5 1000 м
[Sc As op]
+13.6 +9.5 76 +13 +14 1012.9 989.1 +13.3 0.1
00 15.07 СВ 2 20 км дым 4/0
[Ac trans]
+16.5 +8.5 59 +17 +22 1012.5 989.0
03 15.07 З 1 20 км дым 8/3 600 м
[Cu hum Ci fib]
+19.8 +8.3 47 +22 +30 комфорт 1011.2 987.9
06 15.07 штиль 0 20 км дым 8/3 600 м
[Cu hum Ci fib]
+21.8 +8.9 44 +23 +30 комфорт 1010.3 987.3
09 15.07 штиль 0 50 км 3/3 600 м
[Cu hum]
+23.5 +8.1 37 +24 +27 комфорт 1008.2 985.4 +23.5
12 15.07 Ю 1 50 км 4/3 1000 м
[Sc diur, vesp Ci fib]
+21.2 +7.8 42 +22 +22 комфорт 1008.2 985.1
15 15.07 штиль 0 50 км 4/3 1000 м
[Sc diur, vesp Ci fib]
+17.9 +6.9 49 +18 +18 1008.4 985.1
18 15.07 С 4 4000 м дым ?/? +13.6 +6.8 63 +12 +12 1011.8 988.0
21 15.07 СВ 3 4000 м дым ?/? +11.6 +4.3 61 +10 +10 1013.2 989.3 +11.4
00 16.07 СВ 3 4000 м дым ?/? +13.9 +4.6 53 +13 +13 1013.4 989.6
03 16.07 СВ 2 20 км дым 9/9 600 м
[Cu Sc]
+15.4 +4.8 49 +15 +17 1012.8 989.1
06 16.07 С 2 20 км дым 6/6 600 м
[Cu Sc]
+19.2 +3.6 36 +20 +23 1012.0 988.7

 

Местоположение метеостанции Екюччю (Якутия, Россия): широта 66.77 долгота 131.60 высота над уровнем моря 200 м.

В архиве по умолчанию представлена погода в Екюччю за последнюю неделю. Архивные данные за месяц целиком и за предыдущие месяцы, начиная с января 2011 года, Вы можете получить, выбрав интересующий диапазон дат из раскрывающегося списка и нажав кнопку "Ввод!".


*Определитесь, кто Вы:
робот инопланетянин человек

Внимание! Время в таблицах - всемирное. Для получения местного времени необходимо прибавить поправку, которая равна 10 ч.

Смотрите также архив погоды в соседних городах и на ближайших метеорологических станциях:

Погода в Верхоянске (Якутия, Россия) (118 км)
Погода в Батагай-Алыте (Якутия, Россия) (124 км)
Погода в Батагае (Якутия, Россия) (162 км)
Погода в Себян-Кюеле (Якутия, Россия) (179 км)
Погода в Усть-Чарках (Якутия, Россия) (219 км)
Погода в Иэме (Якутия, Россия) (250 км)
Погода в Сеген-Кюеле (Якутия, Россия) (314 км)
Погода в Жиганске (Якутия, Россия) (364 км)
Погода в Сого-Хае (Якутия, Россия) (366 км)
Погода в Сангаре (Якутия, Россия) (369 км)

Пояснения к столбцам:

Ветер - указаны скорость ветра в м/с - средняя за 10 мин, порывы в срок и между сроками (в фигурных скобках) и направление, откуда дует ветер: С - северный, СВ - северо-восточный, В - восточный, ЮВ - юго-восточный, Ю - южный, ЮЗ - юго-западный, З - западный, СЗ - северо-западный.
Видимость - горизонтальная дальность видимости в метрах или километрах. При видимости от 1 до 10 км при отсутствии осадков обычно наблюдается дымка, при ухудшении видимости до 1 км и менее - туман. В сухую погоду видимость может ухудшаться дымом, пылью или мглою.
Явления - указаны атмосферные явления, наблюдавшиеся в срок или в последний час перед сроком; фигурными скобками обозначены явления, наблюдавшиеся между сроками (за 1-3 часа до срока); квадратными скобками обозначены град или гололедные отложения с указанием их диаметра в мм.
Облачность - указаны через наклонную черту общая и нижняя облачность в баллах и высота нижней границы облаков в метрах; квадратными скобками обозначены формы облаков: Ci - перистые, Cs - перисто-слоистые, Cc - перисто-кучевые, Ac - высококучевые, As - высокослоистые, Sc - слоисто-кучевые, Ns - слоисто-дождевые, Cu - кучевые, Cb - кучево-дождевые. Подробнее классификацию облаков см. в Атласе облаков (PDF).
T - Температура воздуха - температура, измеренная на высоте 2 м над землей.
Td - Температура точки росы - температура, при понижении до которой содержащийся в воздухе водяной пар достигнет насыщения.
f - Относительная влажность воздуха - влажноcть воздуха, измеренная на высоте 2 м над землей.
Te - Эффективная температура - температура, которую ощущает одетый по сезону человек в тени. Характеристика душности погоды. При расчете учитывается влияние влажности воздуха и скорости ветра на теплоощущения человека.
Tes - Эффективная температура на солнце - температура, которую ощущает человек, с поправкой на солнечный нагрев. Характеристика знойности погоды. Зависит от высоты солнца над горизонтом, облачности и скорости ветра. Ночью, в пасмурную погоду, а также при ветре 12 м/с и более поправка равна нулю.
P - Атмосферное давление - приведенное к уровню моря атмосферное давление.
Po - Атмосферное давление - измеренное на уровне метеостанции атмосферное давление.
Tmin - Минимальная температура - минимум температуры воздуха на высоте 2 м над землей.
Tmax - Максимальная температура - максимум температуры воздуха на высоте 2 м над землей.
R - Количество осадков - Количество выпавших осадков за период времени, мм. При наведении курсора мыши на число - период времени, за который выпало указанное количество осадков.
R24 - Количество осадков - Количество выпавших осадков за 24 часа, мм.
S - Снежный покров - Высота снежного покрова, см. При наведении курсора мыши на число - состояние снежного покрова и степень покрытия местности в баллах.